owner,sensor,date,latitude,longitude,vertical_datum,sea_water_practical_salinity,qcFlag 
DISL,ioos:station:DISL:CATA:1,2016-07-01T00:00:00Z,30.3085,-88.1395,2.103,11.11,1111122 
DISL,ioos:station:DISL:CATA:1,2016-07-01T00:30:00Z,30.3085,-88.1395,2.104,11.12,1111122 
DISL,ioos:station:DISL:CATA:1,2016-07-01T01:00:00Z,30.3085,-88.1395,2.111,11.17,1111122 
DISL,ioos:station:DISL:CATA:1,2016-07-01T01:30:00Z,30.3085,-88.1395,2.132,10.74,1111122 
DISL,ioos:station:DISL:CATA:1,2016-07-01T02:00:00Z,30.3085,-88.1395,2.141,10.54,1111122 
DISL,ioos:station:DISL:CATA:1,2016-07-01T02:30:00Z,30.3085,-88.1395,2.152,11.26,1111122 
DISL,ioos:station:DISL:CATA:1,2016-07-01T03:00:00Z,30.3085,-88.1395,2.172,11.16,1111122 
DISL,ioos:station:DISL:CATA:1,2016-07-01T03:30:00Z,30.3085,-88.1395,2.202,11.17,1111122 
DISL,ioos:station:DISL:CATA:1,2016-07-01T04:00:00Z,30.3085,-88.1395,2.22,11.23,1111122 
DISL,ioos:station:DISL:CATA:1,2016-07-01T04:30:00Z,30.3085,-88.1395,2.243,11.31,1111122 
DISL,ioos:station:DISL:CATA:1,2016-07-01T05:00:00Z,30.3085,-88.1395,2.267,11.42,1111122 
DISL,ioos:station:DISL:CATA:1,2016-07-01T05:30:00Z,30.3085,-88.1395,2.293,11.56,1111122 
DISL,ioos:station:DISL:CATA:1,2016-07-01T06:00:00Z,30.3085,-88.1395,2.299,11.94,1111122 
DISL,ioos:station:DISL:CATA:1,2016-07-01T06:30:00Z,30.3085,-88.1395,2.321,12.42,1111122 
DISL,ioos:station:DISL:CATA:1,2016-07-01T07:00:00Z,30.3085,-88.1395,2.338,12.76,1111122 
DISL,ioos:station:DISL:CATA:1,2016-07-01T07:30:00Z,30.3085,-88.1395,2.362,13.31,1111122 
DISL,ioos:station:DISL:CATA:1,2016-07-01T08:00:00Z,30.3085,-88.1395,2.388,13.94,1111122 
DISL,ioos:station:DISL:CATA:1,2016-07-01T08:30:00Z,30.3085,-88.1395,2.415,14.04,1111122 
DISL,ioos:station:DISL:CATA:1,2016-07-01T09:00:00Z,30.3085,-88.1395,2.437,14.23,1111122 
DISL,ioos:station:DISL:CATA:1,2016-07-01T09:30:00Z,30.3085,-88.1395,2.474,14.87,1111122 
DISL,ioos:station:DISL:CATA:1,2016-07-01T10:00:00Z,30.3085,-88.1395,2.499,15.0,1111122 
DISL,ioos:station:DISL:CATA:1,2016-07-01T10:30:00Z,30.3085,-88.1395,2.514,14.79,1111122 
DISL,ioos:station:DISL:CATA:1,2016-07-01T11:00:00Z,30.3085,-88.1395,2.519,14.54,1111122 
DISL,ioos:station:DISL:CATA:1,2016-07-01T11:30:00Z,30.3085,-88.1395,2.547,14.48,1111122 
DISL,ioos:station:DISL:CATA:1,2016-07-01T12:00:00Z,30.3085,-88.1395,2.547,14.46,1111122 
DISL,ioos:station:DISL:CATA:1,2016-07-01T12:30:00Z,30.3085,-88.1395,2.526,14.46,1111122 
DISL,ioos:station:DISL:CATA:1,2016-07-01T13:00:00Z,30.3085,-88.1395,2.528,14.46,1111122 
DISL,ioos:station:DISL:CATA:1,2016-07-01T13:30:00Z,30.3085,-88.1395,2.524,14.94,1111122 
DISL,ioos:station:DISL:CATA:1,2016-07-01T14:00:00Z,30.3085,-88.1395,2.516,15.72,1111122 
DISL,ioos:station:DISL:CATA:1,2016-07-01T14:30:00Z,30.3085,-88.1395,2.52,15.88,1111122 
DISL,ioos:station:DISL:CATA:1,2016-07-01T15:00:00Z,30.3085,-88.1395,2.506,16.04,1111122 
DISL,ioos:station:DISL:CATA:1,2016-07-01T15:30:00Z,30.3085,-88.1395,2.488,16.14,1111122 
DISL,ioos:station:DISL:CATA:1,2016-07-01T16:00:00Z,30.3085,-88.1395,2.46,16.03,1111122 
DISL,ioos:station:DISL:CATA:1,2016-07-01T16:30:00Z,30.3085,-88.1395,2.437,15.9,1111122 
DISL,ioos:station:DISL:CATA:1,2016-07-01T17:00:00Z,30.3085,-88.1395,2.396,15.48,1111122 
DISL,ioos:station:DISL:CATA:1,2016-07-01T17:30:00Z,30.3085,-88.1395,2.352,14.86,1111122 
DISL,ioos:station:DISL:CATA:1,2016-07-01T18:00:00Z,30.3085,-88.1395,2.305,14.44,1111122 
DISL,ioos:station:DISL:CATA:1,2016-07-01T18:30:00Z,30.3085,-88.1395,2.247,13.4,1111122 
DISL,ioos:station:DISL:CATA:1,2016-07-01T19:00:00Z,30.3085,-88.1395,2.198,13.14,1111122 
DISL,ioos:station:DISL:CATA:1,2016-07-01T19:30:00Z,30.3085,-88.1395,2.16,12.94,1111122 
DISL,ioos:station:DISL:CATA:1,2016-07-01T20:00:00Z,30.3085,-88.1395,2.127,12.35,1111122 
DISL,ioos:station:DISL:CATA:1,2016-07-01T20:30:00Z,30.3085,-88.1395,2.095,12.38,1111122 
DISL,ioos:station:DISL:CATA:1,2016-07-01T21:00:00Z,30.3085,-88.1395,2.063,11.99,1111122 
DISL,ioos:station:DISL:CATA:1,2016-07-01T21:30:00Z,30.3085,-88.1395,2.034,11.69,1111122 
DISL,ioos:station:DISL:CATA:1,2016-07-01T22:00:00Z,30.3085,-88.1395,2.029,11.77,1111122 
DISL,ioos:station:DISL:CATA:1,2016-07-01T22:30:00Z,30.3085,-88.1395,2.019,11.71,1111122 
DISL,ioos:station:DISL:CATA:1,2016-07-01T23:00:00Z,30.3085,-88.1395,2.004,11.73,1111122 
DISL,ioos:station:DISL:CATA:1,2016-07-01T23:30:00Z,30.3085,-88.1395,1.991,11.68,1111122 
DISL,ioos:station:DISL:CATA:1,2016-07-02T00:00:00Z,30.3085,-88.1395,1.973,11.73,1111122 
DISL,ioos:station:DISL:CATA:1,2016-07-02T00:30:00Z,30.3085,-88.1395,1.962,11.88,1111122 
DISL,ioos:station:DISL:CATA:1,2016-07-02T01:00:00Z,30.3085,-88.1395,1.968,11.76,1111122 
DISL,ioos:station:DISL:CATA:1,2016-07-02T01:30:00Z,30.3085,-88.1395,1.979,11.88,1111122 
DISL,ioos:station:DISL:CATA:1,2016-07-02T02:00:00Z,30.3085,-88.1395,1.999,12.0,1111122 
DISL,ioos:station:DISL:CATA:1,2016-07-02T02:30:00Z,30.3085,-88.1395,2.023,11.91,1111122 
DISL,ioos:station:DISL:CATA:1,2016-07-02T03:00:00Z,30.3085,-88.1395,2.052,11.83,1111122 
DISL,ioos:station:DISL:CATA:1,2016-07-02T03:30:00Z,30.3085,-88.1395,2.071,11.67,1111122 
DISL,ioos:station:DISL:CATA:1,2016-07-02T04:00:00Z,30.3085,-88.1395,2.093,11.66,1111122 
DISL,ioos:station:DISL:CATA:1,2016-07-02T04:30:00Z,30.3085,-88.1395,2.12,11.64,1111122 
DISL,ioos:station:DISL:CATA:1,2016-07-02T05:00:00Z,30.3085,-88.1395,2.134,11.75,1111122 
DISL,ioos:station:DISL:CATA:1,2016-07-02T05:30:00Z,30.3085,-88.1395,2.161,11.56,1111122 
DISL,ioos:station:DISL:CATA:1,2016-07-02T06:00:00Z,30.3085,-88.1395,2.184,12.07,1111122 
DISL,ioos:station:DISL:CATA:1,2016-07-02T06:30:00Z,30.3085,-88.1395,2.21,12.64,1111122 
DISL,ioos:station:DISL:CATA:1,2016-07-02T07:00:00Z,30.3085,-88.1395,2.234,13.18,1111122 
DISL,ioos:station:DISL:CATA:1,2016-07-02T07:30:00Z,30.3085,-88.1395,2.253,13.24,1111122 
DISL,ioos:station:DISL:CATA:1,2016-07-02T08:00:00Z,30.3085,-88.1395,2.286,14.03,1111122 
DISL,ioos:station:DISL:CATA:1,2016-07-02T08:30:00Z,30.3085,-88.1395,2.313,15.09,1111122 
DISL,ioos:station:DISL:CATA:1,2016-07-02T09:00:00Z,30.3085,-88.1395,2.347,15.19,1111122 
DISL,ioos:station:DISL:CATA:1,2016-07-02T09:30:00Z,30.3085,-88.1395,2.38,14.95,1111122 
DISL,ioos:station:DISL:CATA:1,2016-07-02T10:00:00Z,30.3085,-88.1395,2.422,14.63,1111122 
DISL,ioos:station:DISL:CATA:1,2016-07-02T10:30:00Z,30.3085,-88.1395,2.449,14.6,1111122 
DISL,ioos:station:DISL:CATA:1,2016-07-02T11:00:00Z,30.3085,-88.1395,2.485,15.62,1111122 
DISL,ioos:station:DISL:CATA:1,2016-07-02T11:30:00Z,30.3085,-88.1395,2.5,16.58,1111122 
DISL,ioos:station:DISL:CATA:1,2016-07-02T12:00:00Z,30.3085,-88.1395,2.515,16.55,1111122 
DISL,ioos:station:DISL:CATA:1,2016-07-02T12:30:00Z,30.3085,-88.1395,2.527,16.45,1111122 
DISL,ioos:station:DISL:CATA:1,2016-07-02T13:00:00Z,30.3085,-88.1395,2.54,16.5,1111122 
DISL,ioos:station:DISL:CATA:1,2016-07-02T13:30:00Z,30.3085,-88.1395,2.54,16.6,1111122 
DISL,ioos:station:DISL:CATA:1,2016-07-02T14:00:00Z,30.3085,-88.1395,2.536,16.99,1111122 
DISL,ioos:station:DISL:CATA:1,2016-07-02T14:30:00Z,30.3085,-88.1395,2.539,16.79,1111122 
DISL,ioos:station:DISL:CATA:1,2016-07-02T15:00:00Z,30.3085,-88.1395,2.525,18.17,1111122 
DISL,ioos:station:DISL:CATA:1,2016-07-02T15:30:00Z,30.3085,-88.1395,2.519,18.68,1111122 
DISL,ioos:station:DISL:CATA:1,2016-07-02T16:00:00Z,30.3085,-88.1395,2.499,18.72,1111122 
DISL,ioos:station:DISL:CATA:1,2016-07-02T16:30:00Z,30.3085,-88.1395,2.477,18.9,1111122 
DISL,ioos:station:DISL:CATA:1,2016-07-02T17:00:00Z,30.3085,-88.1395,2.451,18.97,1111122 
DISL,ioos:station:DISL:CATA:1,2016-07-02T17:30:00Z,30.3085,-88.1395,2.416,19.07,1111122 
DISL,ioos:station:DISL:CATA:1,2016-07-02T18:00:00Z,30.3085,-88.1395,2.383,19.15,1111122 
DISL,ioos:station:DISL:CATA:1,2016-07-02T18:30:00Z,30.3085,-88.1395,2.343,19.05,1111122 
DISL,ioos:station:DISL:CATA:1,2016-07-02T19:00:00Z,30.3085,-88.1395,2.302,18.81,1111122 
DISL,ioos:station:DISL:CATA:1,2016-07-02T19:30:00Z,30.3085,-88.1395,2.247,20.81,1111122 
DISL,ioos:station:DISL:CATA:1,2016-07-02T20:00:00Z,30.3085,-88.1395,2.201,21.05,1111122 
DISL,ioos:station:DISL:CATA:1,2016-07-02T20:30:00Z,30.3085,-88.1395,2.158,20.96,1111122 
DISL,ioos:station:DISL:CATA:1,2016-07-02T21:00:00Z,30.3085,-88.1395,2.112,19.37,1111122 
DISL,ioos:station:DISL:CATA:1,2016-07-02T21:30:00Z,30.3085,-88.1395,2.075,18.13,1111122 
DISL,ioos:station:DISL:CATA:1,2016-07-02T22:00:00Z,30.3085,-88.1395,2.046,18.07,1111122 
DISL,ioos:station:DISL:CATA:1,2016-07-02T22:30:00Z,30.3085,-88.1395,2.02,19.09,1111122 
DISL,ioos:station:DISL:CATA:1,2016-07-02T23:00:00Z,30.3085,-88.1395,1.99,19.3,1111122 
DISL,ioos:station:DISL:CATA:1,2016-07-02T23:30:00Z,30.3085,-88.1395,1.982,19.8,1111122 
DISL,ioos:station:DISL:CATA:1,2016-07-03T00:00:00Z,30.3085,-88.1395,1.971,20.37,1111122 
DISL,ioos:station:DISL:CATA:1,2016-07-03T00:30:00Z,30.3085,-88.1395,1.966,20.1,1111122 
DISL,ioos:station:DISL:CATA:1,2016-07-03T01:00:00Z,30.3085,-88.1395,1.966,19.83,1111122 
DISL,ioos:station:DISL:CATA:1,2016-07-03T01:30:00Z,30.3085,-88.1395,1.957,20.08,1111122 
DISL,ioos:station:DISL:CATA:1,2016-07-03T02:00:00Z,30.3085,-88.1395,1.956,20.47,1111122 
DISL,ioos:station:DISL:CATA:1,2016-07-03T02:30:00Z,30.3085,-88.1395,1.962,19.25,1111122 
DISL,ioos:station:DISL:CATA:1,2016-07-03T03:00:00Z,30.3085,-88.1395,1.973,19.76,1111122 
DISL,ioos:station:DISL:CATA:1,2016-07-03T03:30:00Z,30.3085,-88.1395,1.994,19.77,1111122 
DISL,ioos:station:DISL:CATA:1,2016-07-03T04:00:00Z,30.3085,-88.1395,2.021,15.77,1111122 
DISL,ioos:station:DISL:CATA:1,2016-07-03T04:30:00Z,30.3085,-88.1395,2.048,13.36,1111122 
DISL,ioos:station:DISL:CATA:1,2016-07-03T05:00:00Z,30.3085,-88.1395,2.068,13.22,1111122 
DISL,ioos:station:DISL:CATA:1,2016-07-03T05:30:00Z,30.3085,-88.1395,2.092,13.15,1111122 
DISL,ioos:station:DISL:CATA:1,2016-07-03T06:00:00Z,30.3085,-88.1395,2.132,14.04,1111122 
DISL,ioos:station:DISL:CATA:1,2016-07-03T06:30:00Z,30.3085,-88.1395,2.153,14.67,1111122 
DISL,ioos:station:DISL:CATA:1,2016-07-03T07:00:00Z,30.3085,-88.1395,2.176,15.64,1111122 
DISL,ioos:station:DISL:CATA:1,2016-07-03T07:30:00Z,30.3085,-88.1395,2.211,15.05,1111122 
DISL,ioos:station:DISL:CATA:1,2016-07-03T08:00:00Z,30.3085,-88.1395,2.226,14.99,1111122 
DISL,ioos:station:DISL:CATA:1,2016-07-03T08:30:00Z,30.3085,-88.1395,2.255,15.64,1111122 
DISL,ioos:station:DISL:CATA:1,2016-07-03T09:00:00Z,30.3085,-88.1395,2.285,16.26,1111122 
DISL,ioos:station:DISL:CATA:1,2016-07-03T09:30:00Z,30.3085,-88.1395,2.307,16.69,1111122 
DISL,ioos:station:DISL:CATA:1,2016-07-03T10:00:00Z,30.3085,-88.1395,2.333,17.1,1111122 
DISL,ioos:station:DISL:CATA:1,2016-07-03T10:30:00Z,30.3085,-88.1395,2.355,16.86,1111122 
DISL,ioos:station:DISL:CATA:1,2016-07-03T11:00:00Z,30.3085,-88.1395,2.383,17.88,1111122 
DISL,ioos:station:DISL:CATA:1,2016-07-03T11:30:00Z,30.3085,-88.1395,2.432,18.07,1111122 
DISL,ioos:station:DISL:CATA:1,2016-07-03T12:00:00Z,30.3085,-88.1395,2.457,18.05,1111122 
DISL,ioos:station:DISL:CATA:1,2016-07-03T12:30:00Z,30.3085,-88.1395,2.485,18.54,1111122 
DISL,ioos:station:DISL:CATA:1,2016-07-03T13:00:00Z,30.3085,-88.1395,2.506,18.11,1111122 
DISL,ioos:station:DISL:CATA:1,2016-07-03T13:30:00Z,30.3085,-88.1395,2.524,17.83,1111122 
DISL,ioos:station:DISL:CATA:1,2016-07-03T14:00:00Z,30.3085,-88.1395,2.537,19.25,1111122 
DISL,ioos:station:DISL:CATA:1,2016-07-03T14:30:00Z,30.3085,-88.1395,2.546,18.44,1111122 
DISL,ioos:station:DISL:CATA:1,2016-07-03T15:00:00Z,30.3085,-88.1395,2.543,18.61,1111122 
DISL,ioos:station:DISL:CATA:1,2016-07-03T15:30:00Z,30.3085,-88.1395,2.529,18.97,1111122 
DISL,ioos:station:DISL:CATA:1,2016-07-03T16:00:00Z,30.3085,-88.1395,2.516,19.65,1111122 
DISL,ioos:station:DISL:CATA:1,2016-07-03T16:30:00Z,30.3085,-88.1395,2.501,19.76,1111122 
DISL,ioos:station:DISL:CATA:1,2016-07-03T17:00:00Z,30.3085,-88.1395,2.477,20.35,1111122 
DISL,ioos:station:DISL:CATA:1,2016-07-03T17:30:00Z,30.3085,-88.1395,2.452,20.47,1111122 
DISL,ioos:station:DISL:CATA:1,2016-07-03T18:00:00Z,30.3085,-88.1395,2.42,21.25,1111122 
DISL,ioos:station:DISL:CATA:1,2016-07-03T18:30:00Z,30.3085,-88.1395,2.396,21.94,1111122 
DISL,ioos:station:DISL:CATA:1,2016-07-03T19:00:00Z,30.3085,-88.1395,2.363,22.71,1111122 
DISL,ioos:station:DISL:CATA:1,2016-07-03T19:30:00Z,30.3085,-88.1395,2.315,22.81,1111122 
DISL,ioos:station:DISL:CATA:1,2016-07-03T20:00:00Z,30.3085,-88.1395,2.276,22.84,1111122 
DISL,ioos:station:DISL:CATA:1,2016-07-03T20:30:00Z,30.3085,-88.1395,2.218,22.88,1111122 
DISL,ioos:station:DISL:CATA:1,2016-07-03T21:00:00Z,30.3085,-88.1395,2.161,22.66,1111122 
DISL,ioos:station:DISL:CATA:1,2016-07-03T21:30:00Z,30.3085,-88.1395,2.104,22.19,1111122 
DISL,ioos:station:DISL:CATA:1,2016-07-03T22:00:00Z,30.3085,-88.1395,2.061,21.36,1111122 
DISL,ioos:station:DISL:CATA:1,2016-07-03T22:30:00Z,30.3085,-88.1395,2.03,22.06,1111122 
DISL,ioos:station:DISL:CATA:1,2016-07-03T23:00:00Z,30.3085,-88.1395,2.001,22.23,1111122 
DISL,ioos:station:DISL:CATA:1,2016-07-03T23:30:00Z,30.3085,-88.1395,1.972,22.84,1111122 
DISL,ioos:station:DISL:CATA:1,2016-07-04T00:00:00Z,30.3085,-88.1395,1.964,23.17,1111122 
DISL,ioos:station:DISL:CATA:1,2016-07-04T00:30:00Z,30.3085,-88.1395,1.943,23.36,1111122 
DISL,ioos:station:DISL:CATA:1,2016-07-04T01:00:00Z,30.3085,-88.1395,1.946,23.32,1111122 
DISL,ioos:station:DISL:CATA:1,2016-07-04T01:30:00Z,30.3085,-88.1395,1.943,22.12,1111122 
DISL,ioos:station:DISL:CATA:1,2016-07-04T02:00:00Z,30.3085,-88.1395,1.935,22.14,1111122 
DISL,ioos:station:DISL:CATA:1,2016-07-04T02:30:00Z,30.3085,-88.1395,1.932,22.09,1111122 
DISL,ioos:station:DISL:CATA:1,2016-07-04T03:00:00Z,30.3085,-88.1395,1.946,22.19,1111122 
DISL,ioos:station:DISL:CATA:1,2016-07-04T03:30:00Z,30.3085,-88.1395,1.948,19.33,1111122 
DISL,ioos:station:DISL:CATA:1,2016-07-04T04:00:00Z,30.3085,-88.1395,1.965,19.26,1111122 
DISL,ioos:station:DISL:CATA:1,2016-07-04T04:30:00Z,30.3085,-88.1395,1.971,19.53,1111122 
DISL,ioos:station:DISL:CATA:1,2016-07-04T05:00:00Z,30.3085,-88.1395,1.993,19.85,1111122 
DISL,ioos:station:DISL:CATA:1,2016-07-04T05:30:00Z,30.3085,-88.1395,2.021,20.81,1111122 
DISL,ioos:station:DISL:CATA:1,2016-07-04T06:00:00Z,30.3085,-88.1395,2.052,20.81,1111122 
DISL,ioos:station:DISL:CATA:1,2016-07-04T06:30:00Z,30.3085,-88.1395,2.087,19.41,1111122 
DISL,ioos:station:DISL:CATA:1,2016-07-04T07:00:00Z,30.3085,-88.1395,2.118,18.28,1111122 
DISL,ioos:station:DISL:CATA:1,2016-07-04T07:30:00Z,30.3085,-88.1395,2.143,17.06,1111122 
DISL,ioos:station:DISL:CATA:1,2016-07-04T08:00:00Z,30.3085,-88.1395,2.175,18.08,1111122 
DISL,ioos:station:DISL:CATA:1,2016-07-04T08:30:00Z,30.3085,-88.1395,2.196,17.22,1111122 
DISL,ioos:station:DISL:CATA:1,2016-07-04T09:00:00Z,30.3085,-88.1395,2.225,17.08,1111122 
DISL,ioos:station:DISL:CATA:1,2016-07-04T09:30:00Z,30.3085,-88.1395,2.231,18.26,1111122 
DISL,ioos:station:DISL:CATA:1,2016-07-04T10:00:00Z,30.3085,-88.1395,2.255,17.98,1111122 
DISL,ioos:station:DISL:CATA:1,2016-07-04T10:30:00Z,30.3085,-88.1395,2.289,18.77,1111122 
DISL,ioos:station:DISL:CATA:1,2016-07-04T11:00:00Z,30.3085,-88.1395,2.318,18.27,1111122 
DISL,ioos:station:DISL:CATA:1,2016-07-04T11:30:00Z,30.3085,-88.1395,2.353,20.26,1111122 
DISL,ioos:station:DISL:CATA:1,2016-07-04T12:00:00Z,30.3085,-88.1395,2.376,20.17,1111122 
DISL,ioos:station:DISL:CATA:1,2016-07-04T12:30:00Z,30.3085,-88.1395,2.415,19.72,1111122 
DISL,ioos:station:DISL:CATA:1,2016-07-04T13:00:00Z,30.3085,-88.1395,2.444,19.42,1111122 
DISL,ioos:station:DISL:CATA:1,2016-07-04T13:30:00Z,30.3085,-88.1395,2.47,19.9,1111122 
DISL,ioos:station:DISL:CATA:1,2016-07-04T14:00:00Z,30.3085,-88.1395,2.488,20.31,1111122 
DISL,ioos:station:DISL:CATA:1,2016-07-04T14:30:00Z,30.3085,-88.1395,2.501,20.61,1111122 
DISL,ioos:station:DISL:CATA:1,2016-07-04T15:00:00Z,30.3085,-88.1395,2.509,19.82,1111122 
DISL,ioos:station:DISL:CATA:1,2016-07-04T15:30:00Z,30.3085,-88.1395,2.516,20.35,1111122 
DISL,ioos:station:DISL:CATA:1,2016-07-04T16:00:00Z,30.3085,-88.1395,2.51,20.85,1111122 
DISL,ioos:station:DISL:CATA:1,2016-07-04T16:30:00Z,30.3085,-88.1395,2.506,20.91,1111122 
DISL,ioos:station:DISL:CATA:1,2016-07-04T17:00:00Z,30.3085,-88.1395,2.49,21.03,1111122 
DISL,ioos:station:DISL:CATA:1,2016-07-04T17:30:00Z,30.3085,-88.1395,2.481,21.29,1111122 
DISL,ioos:station:DISL:CATA:1,2016-07-04T18:00:00Z,30.3085,-88.1395,2.472,20.13,1111122 
DISL,ioos:station:DISL:CATA:1,2016-07-04T18:30:00Z,30.3085,-88.1395,2.438,21.16,1111122 
DISL,ioos:station:DISL:CATA:1,2016-07-04T19:00:00Z,30.3085,-88.1395,2.4,21.19,1111122 
DISL,ioos:station:DISL:CATA:1,2016-07-04T19:30:00Z,30.3085,-88.1395,2.361,20.61,1111122 
DISL,ioos:station:DISL:CATA:1,2016-07-04T20:00:00Z,30.3085,-88.1395,2.321,20.83,1111122 
DISL,ioos:station:DISL:CATA:1,2016-07-04T20:30:00Z,30.3085,-88.1395,2.292,20.75,1111122 
DISL,ioos:station:DISL:CATA:1,2016-07-04T21:00:00Z,30.3085,-88.1395,2.241,20.91,1111122 
DISL,ioos:station:DISL:CATA:1,2016-07-04T21:30:00Z,30.3085,-88.1395,2.194,20.71,1111122 
DISL,ioos:station:DISL:CATA:1,2016-07-04T22:00:00Z,30.3085,-88.1395,2.164,20.83,1111122 
DISL,ioos:station:DISL:CATA:1,2016-07-04T22:30:00Z,30.3085,-88.1395,2.118,21.17,1111122 
DISL,ioos:station:DISL:CATA:1,2016-07-04T23:00:00Z,30.3085,-88.1395,2.083,19.68,1111122 
DISL,ioos:station:DISL:CATA:1,2016-07-04T23:30:00Z,30.3085,-88.1395,2.04,17.96,1111122 
DISL,ioos:station:DISL:CATA:1,2016-07-05T00:00:00Z,30.3085,-88.1395,2.006,19.14,1111122 
DISL,ioos:station:DISL:CATA:1,2016-07-05T00:30:00Z,30.3085,-88.1395,1.992,19.36,1111122 
DISL,ioos:station:DISL:CATA:1,2016-07-05T01:00:00Z,30.3085,-88.1395,1.969,19.76,1111122 
DISL,ioos:station:DISL:CATA:1,2016-07-05T01:30:00Z,30.3085,-88.1395,1.949,21.36,1111122 
DISL,ioos:station:DISL:CATA:1,2016-07-05T02:00:00Z,30.3085,-88.1395,1.916,20.16,1111122 
DISL,ioos:station:DISL:CATA:1,2016-07-05T02:30:00Z,30.3085,-88.1395,1.923,20.36,1111122 
DISL,ioos:station:DISL:CATA:1,2016-07-05T03:00:00Z,30.3085,-88.1395,1.929,20.83,1111122 
DISL,ioos:station:DISL:CATA:1,2016-07-05T03:30:00Z,30.3085,-88.1395,1.942,21.87,1111122 
DISL,ioos:station:DISL:CATA:1,2016-07-05T04:00:00Z,30.3085,-88.1395,1.96,21.81,1111122 
DISL,ioos:station:DISL:CATA:1,2016-07-05T04:30:00Z,30.3085,-88.1395,1.986,21.47,1111122 
DISL,ioos:station:DISL:CATA:1,2016-07-05T05:00:00Z,30.3085,-88.1395,1.997,20.88,1111122 
DISL,ioos:station:DISL:CATA:1,2016-07-05T05:30:00Z,30.3085,-88.1395,1.989,21.02,1111122 
DISL,ioos:station:DISL:CATA:1,2016-07-05T06:00:00Z,30.3085,-88.1395,2.007,20.3,1111122 
DISL,ioos:station:DISL:CATA:1,2016-07-05T06:30:00Z,30.3085,-88.1395,2.032,19.99,1111122 
DISL,ioos:station:DISL:CATA:1,2016-07-05T07:00:00Z,30.3085,-88.1395,2.037,20.06,1111122 
DISL,ioos:station:DISL:CATA:1,2016-07-05T07:30:00Z,30.3085,-88.1395,2.055,19.09,1111122 
DISL,ioos:station:DISL:CATA:1,2016-07-05T08:00:00Z,30.3085,-88.1395,2.082,19.05,1111122 
DISL,ioos:station:DISL:CATA:1,2016-07-05T08:30:00Z,30.3085,-88.1395,2.125,18.73,1111122 
DISL,ioos:station:DISL:CATA:1,2016-07-05T09:00:00Z,30.3085,-88.1395,2.138,18.74,1111122 
DISL,ioos:station:DISL:CATA:1,2016-07-05T09:30:00Z,30.3085,-88.1395,2.159,18.43,1111122 
DISL,ioos:station:DISL:CATA:1,2016-07-05T10:00:00Z,30.3085,-88.1395,2.183,19.09,1111122 
DISL,ioos:station:DISL:CATA:1,2016-07-05T10:30:00Z,30.3085,-88.1395,2.211,18.22,1111122 
DISL,ioos:station:DISL:CATA:1,2016-07-05T11:00:00Z,30.3085,-88.1395,2.221,18.52,1111122 
DISL,ioos:station:DISL:CATA:1,2016-07-05T11:30:00Z,30.3085,-88.1395,2.263,18.55,1111122 
DISL,ioos:station:DISL:CATA:1,2016-07-05T12:00:00Z,30.3085,-88.1395,2.291,19.28,1111122 
DISL,ioos:station:DISL:CATA:1,2016-07-05T12:30:00Z,30.3085,-88.1395,2.337,18.9,1111122 
DISL,ioos:station:DISL:CATA:1,2016-07-05T13:00:00Z,30.3085,-88.1395,2.379,19.37,1111122 
DISL,ioos:station:DISL:CATA:1,2016-07-05T13:30:00Z,30.3085,-88.1395,2.407,19.74,1111122 
DISL,ioos:station:DISL:CATA:1,2016-07-05T14:00:00Z,30.3085,-88.1395,2.423,20.43,1111122 
DISL,ioos:station:DISL:CATA:1,2016-07-05T14:30:00Z,30.3085,-88.1395,2.459,20.86,1111122 
DISL,ioos:station:DISL:CATA:1,2016-07-05T15:00:00Z,30.3085,-88.1395,2.475,21.17,1111122 
DISL,ioos:station:DISL:CATA:1,2016-07-05T15:30:00Z,30.3085,-88.1395,2.482,21.95,1111122 
DISL,ioos:station:DISL:CATA:1,2016-07-05T16:00:00Z,30.3085,-88.1395,2.482,21.69,1111122 
DISL,ioos:station:DISL:CATA:1,2016-07-05T16:30:00Z,30.3085,-88.1395,2.476,21.61,1111122 
DISL,ioos:station:DISL:CATA:1,2016-07-05T17:00:00Z,30.3085,-88.1395,2.471,22.0,1111122 
DISL,ioos:station:DISL:CATA:1,2016-07-05T17:30:00Z,30.3085,-88.1395,2.454,21.5,1111122 
DISL,ioos:station:DISL:CATA:1,2016-07-05T18:00:00Z,30.3085,-88.1395,2.435,22.05,1111122 
DISL,ioos:station:DISL:CATA:1,2016-07-05T18:30:00Z,30.3085,-88.1395,2.417,22.17,1111122 
DISL,ioos:station:DISL:CATA:1,2016-07-05T19:00:00Z,30.3085,-88.1395,2.415,20.99,1111122 
DISL,ioos:station:DISL:CATA:1,2016-07-05T19:30:00Z,30.3085,-88.1395,2.393,20.16,1111122 
DISL,ioos:station:DISL:CATA:1,2016-07-05T20:00:00Z,30.3085,-88.1395,2.373,20.68,1111122 
DISL,ioos:station:DISL:CATA:1,2016-07-05T20:30:00Z,30.3085,-88.1395,2.323,22.14,1111122 
DISL,ioos:station:DISL:CATA:1,2016-07-05T21:00:00Z,30.3085,-88.1395,2.281,20.12,1111122 
DISL,ioos:station:DISL:CATA:1,2016-07-05T21:30:00Z,30.3085,-88.1395,2.223,22.13,1111122 
DISL,ioos:station:DISL:CATA:1,2016-07-05T22:00:00Z,30.3085,-88.1395,2.177,21.73,1111122 
DISL,ioos:station:DISL:CATA:1,2016-07-05T22:30:00Z,30.3085,-88.1395,2.144,21.27,1111122 
DISL,ioos:station:DISL:CATA:1,2016-07-05T23:00:00Z,30.3085,-88.1395,2.098,21.25,1111122 
DISL,ioos:station:DISL:CATA:1,2016-07-05T23:30:00Z,30.3085,-88.1395,2.047,21.18,1111122 
DISL,ioos:station:DISL:CATA:1,2016-07-06T00:00:00Z,30.3085,-88.1395,2.002,21.05,1111122 
DISL,ioos:station:DISL:CATA:1,2016-07-06T00:30:00Z,30.3085,-88.1395,1.967,21.19,1111122 
DISL,ioos:station:DISL:CATA:1,2016-07-06T01:00:00Z,30.3085,-88.1395,1.956,20.02,1111122 
DISL,ioos:station:DISL:CATA:1,2016-07-06T01:30:00Z,30.3085,-88.1395,1.939,18.35,1111122 
DISL,ioos:station:DISL:CATA:1,2016-07-06T02:00:00Z,30.3085,-88.1395,1.928,21.46,1111122 
DISL,ioos:station:DISL:CATA:1,2016-07-06T02:30:00Z,30.3085,-88.1395,1.932,21.49,1111122 
DISL,ioos:station:DISL:CATA:1,2016-07-06T03:00:00Z,30.3085,-88.1395,1.932,21.54,1111122 
DISL,ioos:station:DISL:CATA:1,2016-07-06T03:30:00Z,30.3085,-88.1395,1.932,21.78,1111122 
DISL,ioos:station:DISL:CATA:1,2016-07-06T04:00:00Z,30.3085,-88.1395,1.937,21.24,1111122 
DISL,ioos:station:DISL:CATA:1,2016-07-06T04:30:00Z,30.3085,-88.1395,1.945,21.62,1111122 
DISL,ioos:station:DISL:CATA:1,2016-07-06T05:00:00Z,30.3085,-88.1395,1.955,21.55,1111122 
DISL,ioos:station:DISL:CATA:1,2016-07-06T05:30:00Z,30.3085,-88.1395,1.97,21.52,1111122 
DISL,ioos:station:DISL:CATA:1,2016-07-06T06:00:00Z,30.3085,-88.1395,1.981,21.49,1111122 
DISL,ioos:station:DISL:CATA:1,2016-07-06T06:30:00Z,30.3085,-88.1395,2.011,20.1,1111122 
DISL,ioos:station:DISL:CATA:1,2016-07-06T07:00:00Z,30.3085,-88.1395,2.028,20.9,1111122 
DISL,ioos:station:DISL:CATA:1,2016-07-06T07:30:00Z,30.3085,-88.1395,2.042,19.56,1111122 
DISL,ioos:station:DISL:CATA:1,2016-07-06T08:00:00Z,30.3085,-88.1395,2.055,19.7,1111122 
DISL,ioos:station:DISL:CATA:1,2016-07-06T08:30:00Z,30.3085,-88.1395,2.078,20.36,1111122 
DISL,ioos:station:DISL:CATA:1,2016-07-06T09:00:00Z,30.3085,-88.1395,2.089,20.21,1111122 
DISL,ioos:station:DISL:CATA:1,2016-07-06T09:30:00Z,30.3085,-88.1395,2.107,18.88,1111122 
DISL,ioos:station:DISL:CATA:1,2016-07-06T10:00:00Z,30.3085,-88.1395,2.131,19.67,1111122 
DISL,ioos:station:DISL:CATA:1,2016-07-06T10:30:00Z,30.3085,-88.1395,2.153,18.81,1111122 
DISL,ioos:station:DISL:CATA:1,2016-07-06T11:00:00Z,30.3085,-88.1395,2.173,19.13,1111122 
DISL,ioos:station:DISL:CATA:1,2016-07-06T11:30:00Z,30.3085,-88.1395,2.191,20.26,1111122 
DISL,ioos:station:DISL:CATA:1,2016-07-06T12:00:00Z,30.3085,-88.1395,2.226,19.24,1111122 
DISL,ioos:station:DISL:CATA:1,2016-07-06T12:30:00Z,30.3085,-88.1395,2.252,18.96,1111122 
DISL,ioos:station:DISL:CATA:1,2016-07-06T13:00:00Z,30.3085,-88.1395,2.285,19.09,1111122 
DISL,ioos:station:DISL:CATA:1,2016-07-06T13:30:00Z,30.3085,-88.1395,2.32,18.64,1111122 
DISL,ioos:station:DISL:CATA:1,2016-07-06T14:00:00Z,30.3085,-88.1395,2.345,18.81,1111122 